Location: Ladd Observatory
(41.8387°N, 71.3996°W)
Time: 09:21:16
(UTC-04:00)

ISS - Visible Passes

Search period start: 01 November 2014 00:00
Search period end: 10 November 2014 23:00
Orbit: 412 x 417 km, 51.6° (Epoch: 01 November)

Date Brightness Start Highest point End Pass type
(mag) Time Alt. Az. Time Alt. Az. Time Alt. Az.
07 Nov -0.2 05:34:32 10° S 05:36:37 16° SE 05:38:43 10° E visible
09 Nov -2.0 05:31:00 10° SSW 05:34:08 41° SE 05:37:17 10° ENE visible
10 Nov -1.0 04:42:15 11° S 04:44:45 23° SE 04:47:28 10° E visible
